CAPE
4 3 6 18 18 10 6 4 nan nan nan nan nan nan nan nan nan nan nan nan nan nan nan nan nan nan nan nan nan nan nan nan nan nan nan nan nan nan nan nan nan nan nan nan nan nan nan nan nan nan nan nan nan nan 2 33 33 69 120 168 168 210 254 239 239 247 213 198 202 202 207 131 46 46 6 1 nan nan 0 6 6 16 26 30 30 53
nan 1 2 8 8 3 nan nan nan nan nan nan nan nan nan nan 1 1 0 nan nan nan nan nan nan nan 0 nan nan nan nan nan nan nan nan nan nan nan nan nan nan nan nan nan nan nan nan nan nan nan nan nan nan nan nan 1 1 22 63 88 88 146 167 191 191 181 168 157 161 161 135 74 23 23 4 nan 0 0 3 8 8 18 30 51 51 84
nan 0 2 8 8 8 5 2 nan nan nan nan nan nan nan nan 6 6 5 0 0 nan nan nan nan nan nan nan nan nan nan nan nan nan nan nan nan nan nan nan nan nan nan nan nan nan nan nan nan nan nan nan nan nan nan nan nan nan 3 17 17 43 66 92 92 92 91 87 66 66 49 21 5 5 4 2 8 8 12 23 23 29 45 63 63 96
nan nan nan 0 0 11 15 16 11 11 6 1 nan nan nan nan 3 3 7 5 5 1 nan nan nan nan nan nan nan nan nan nan 0 0 0 nan nan nan nan nan nan nan nan nan nan nan nan nan nan nan nan nan nan nan nan nan nan nan nan nan nan nan 1 6 6 19 14 2 nan nan nan 1 3 3 5 7 14 14 22 23 23 29 49 75 75 105
nan nan nan nan nan nan 3 15 24 24 21 14 9 9 9 6 1 1 2 5 5 4 2 0 0 nan nan nan nan nan nan 1 1 1 1 0 nan nan nan nan nan nan nan nan nan nan nan nan nan nan nan nan nan nan nan nan nan nan nan nan nan nan nan nan nan nan nan nan nan nan nan nan 3 3 5 6 18 18 33 34 34 40 47 60 60 103
nan nan nan nan nan nan nan nan 6 6 20 29 41 41 33 12 nan nan nan nan nan nan nan nan nan 0 nan nan nan nan nan 1 1 1 1 1 nan nan nan nan nan nan nan nan nan nan nan nan nan nan nan nan nan nan nan nan nan nan nan nan nan nan nan nan nan nan nan nan nan nan nan nan 1 1 1 2 12 12 37 45 45 46 47 58 58 91
nan nan nan nan nan nan nan nan nan nan nan 12 50 50 47 19 0 0 nan nan nan nan nan nan nan nan nan nan nan nan nan 0 1 1 1 0 0 0 0 1 1 0 0 0 0 0 0 0 0 0 nan nan nan nan nan nan nan nan nan nan nan nan nan nan nan nan nan nan nan nan nan nan nan nan nan nan 4 4 29 49 49 58 51 50 50 73
nan nan nan nan nan nan nan nan nan nan nan nan 0 0 2 5 6 6 1 nan nan nan nan nan nan 1 2 1 1 1 1 nan nan nan 0 1 1 1 1 1 1 1 1 1 1 1 1 1 1 1 1 1 0 0 nan nan nan nan nan nan nan nan nan nan nan nan nan nan nan nan nan nan nan nan nan nan nan nan nan 22 22 62 73 67 67 71
nan nan nan nan nan nan nan nan nan nan nan nan 1 1 3 3 4 4 6 4 4 1 nan nan nan 1 2 2 3 3 2 0 nan nan nan nan nan nan 0 1 1 2 2 1 1 1 1 1 1 1 1 1 0 0 nan nan nan nan nan nan nan nan nan nan nan nan nan nan nan nan nan nan nan nan nan nan nan nan nan nan nan 31 73 84 84 89
nan nan nan nan nan nan nan nan nan nan nan 6 30 30 30 18 8 8 4 2 2 3 4 5 5 4 3 3 4 4 4 1 1 1 1 nan nan nan nan nan nan nan 1 1 1 1 1 1 1 1 1 1 0 0 nan nan nan nan nan nan nan nan nan nan nan nan nan nan nan nan nan nan nan nan nan nan nan nan nan nan nan nan 23 69 69 99
nan nan nan nan nan nan nan nan nan nan 0 39 68 68 68 50 35 35 19 3 3 nan nan 5 5 6 5 5 5 5 6 4 1 1 0 nan nan nan nan nan nan nan nan 0 0 0 0 0 0 0 1 0 0 0 nan nan nan nan nan nan nan nan nan nan nan nan nan nan nan nan nan nan nan nan nan nan nan nan nan nan nan nan nan 32 32 90
nan nan nan nan nan nan nan nan nan nan 16 48 39 39 46 46 47 47 36 15 15 nan nan nan nan 4 9 7 7 7 7 8 2 2 nan nan nan nan nan nan nan nan nan nan nan nan nan nan nan nan nan nan 0 0 nan nan nan nan nan nan nan nan nan nan nan nan nan nan nan nan nan nan nan nan nan nan nan nan nan nan nan nan nan nan nan 50
nan nan nan nan nan nan nan nan nan nan 1 20 19 19 15 16 30 30 37 19 19 2 nan nan nan 1 11 10 7 7 8 10 3 3 nan nan nan nan nan nan nan nan nan nan nan nan nan nan nan nan nan nan nan nan nan nan nan nan nan nan nan nan nan nan nan nan nan nan nan nan nan nan nan nan nan nan nan nan nan nan nan nan nan nan nan 7
nan nan nan nan nan nan nan nan nan nan nan nan 6 6 11 14 26 26 31 21 21 11 3 1 1 0 9 14 8 8 7 15 6 6 nan nan nan nan nan nan nan nan nan nan nan nan nan nan nan nan nan nan nan nan nan nan nan nan nan 0 0 0 0 nan nan nan nan nan nan nan nan nan nan nan nan nan nan nan nan nan nan nan nan nan nan 0
nan nan nan nan nan nan nan nan nan nan nan nan 0 0 8 21 31 31 35 27 27 18 14 7 7 3 6 17 12 12 5 13 11 11 3 nan nan nan nan nan nan nan nan nan nan nan nan nan nan nan nan nan nan nan nan nan nan 0 0 0 0 0 0 nan nan nan nan nan nan nan nan nan nan nan nan nan nan nan nan nan nan nan nan nan nan nan
nan nan nan nan nan nan nan nan nan nan nan nan nan nan nan 6 31 31 40 30 30 26 20 17 17 10 8 12 17 17 9 9 10 10 4 nan nan nan nan nan nan nan nan nan nan nan nan nan nan nan nan nan nan nan nan nan nan nan 1 0 0 0 nan nan nan nan nan nan nan nan nan nan nan nan nan nan nan nan nan nan nan nan nan nan nan nan
0 1 0 0 0 nan nan nan nan nan nan nan nan nan nan nan 10 10 28 34 34 35 38 33 33 24 13 13 25 25 13 7 4 4 1 nan nan nan nan nan nan nan nan nan nan nan nan nan nan nan nan nan nan nan nan nan nan nan 0 0 0 0 nan nan nan nan nan nan nan nan nan nan nan nan nan nan nan nan nan nan nan nan nan nan nan nan
1 1 3 3 3 0 nan nan nan nan nan nan nan nan nan nan 0 0 14 28 28 41 70 72 72 46 26 12 32 32 9 5 4 4 2 nan nan nan nan nan nan nan nan nan nan nan nan nan nan nan nan nan nan nan nan nan nan nan nan nan nan 0 nan 0 0 nan nan nan nan nan nan nan nan nan nan nan nan nan nan nan nan nan nan nan nan nan
0 3 6 5 5 3 1 nan nan nan nan nan nan nan nan nan nan nan 1 17 17 38 69 61 61 56 52 25 19 19 7 4 10 10 3 0 nan nan nan nan nan nan nan nan nan nan nan nan nan nan nan nan nan nan nan nan nan nan nan nan nan nan 0 0 0 0 nan nan nan nan nan nan nan nan nan nan nan nan nan nan nan nan nan nan nan nan
5 3 3 4 4 7 4 3 2 2 0 nan nan nan nan nan 2 2 6 19 19 47 60 68 68 67 51 29 11 11 3 3 9 9 4 1 1 1 1 nan nan nan nan nan nan nan nan nan nan nan nan nan nan nan nan nan nan nan nan nan nan nan nan 0 0 0 nan nan nan nan nan nan nan nan nan nan nan nan nan nan nan nan nan nan nan nan
9 5 0 1 1 6 4 3 3 3 6 8 4 4 1 2 2 2 nan 2 2 47 103 101 101 74 69 26 11 11 1 0 4 4 5 2 1 1 nan nan nan nan nan nan nan nan nan nan nan nan nan nan nan nan nan nan nan nan nan nan nan nan 0 0 0 1 0 nan nan nan nan nan nan nan nan nan nan nan nan nan nan nan nan nan nan nan
13 7 0 1 1 5 9 6 9 9 12 18 2 2 2 0 nan nan nan 1 1 21 61 61 61 66 69 43 47 47 4 0 5 5 6 3 1 1 nan nan nan nan nan nan nan nan nan nan nan nan nan nan nan nan nan nan nan nan nan nan nan nan 0 0 0 1 0 0 nan nan nan nan nan nan nan nan nan nan nan nan nan nan nan nan nan nan
28 17 7 3 3 2 6 6 7 7 10 7 4 4 4 2 nan nan nan nan nan nan 5 11 11 10 5 0 2 2 15 25 38 38 21 7 1 1 nan nan nan nan nan nan nan nan nan nan nan nan nan nan nan nan nan nan nan nan nan 0 0 0 nan 0 0 1 1 0 nan nan nan nan nan nan nan nan nan nan nan nan nan nan nan nan nan nan
42 33 18 12 12 7 6 6 5 5 5 3 4 4 1 0 nan nan nan nan nan nan nan nan nan nan nan nan nan nan 3 9 36 36 50 37 8 8 nan nan nan nan nan nan nan nan nan nan nan nan nan nan nan nan nan nan nan nan nan 0 0 1 1 0 0 1 1 1 nan nan nan nan nan nan nan nan nan nan nan nan nan nan nan nan nan nan
44 42 32 28 28 19 18 11 10 10 6 1 nan nan nan nan 7 7 3 1 1 nan nan nan nan nan nan nan nan nan nan 0 19 19 45 44 37 37 7 nan nan nan nan nan nan nan nan nan nan nan nan 0 0 0 0 nan nan nan 0 2 2 3 2 1 1 1 1 1 nan nan nan nan nan nan nan nan nan nan nan nan nan nan nan nan nan nan
50 50 50 57 57 77 81 70 61 61 39 13 8 8 12 20 18 18 5 2 2 2 2 0 0 nan nan nan nan nan nan nan 8 8 25 31 38 38 42 nan nan nan nan nan nan nan nan nan nan nan nan 0 3 3 2 2 2 2 3 5 5 5 4 3 3 2 1 1 nan nan nan nan nan nan nan nan nan nan nan nan nan nan nan nan nan nan
74 86 110 119 119 120 111 108 99 99 101 62 32 32 33 36 31 31 26 12 12 11 14 8 8 2 0 nan nan nan nan nan 0 0 14 23 28 28 10 nan nan nan nan nan nan nan nan nan nan nan nan 0 3 3 4 4 4 5 7 9 9 9 7 5 5 2 1 0 nan nan nan nan nan nan nan nan nan nan nan nan nan nan nan nan nan nan
99 99 97 103 103 109 104 105 100 100 95 89 98 98 73 43 39 39 29 27 27 24 20 11 11 5 2 nan nan nan nan nan 2 2 14 32 33 33 22 5 5 nan nan nan nan nan nan nan nan nan nan nan 0 0 4 5 5 7 9 12 12 13 9 6 6 2 nan nan nan nan nan nan nan nan nan nan nan nan nan nan nan nan nan nan nan nan
121 111 120 126 126 127 137 141 127 127 120 125 131 131 86 32 30 30 38 44 44 44 28 22 22 15 5 0 nan nan nan nan 0 0 15 27 35 35 27 22 22 25 13 9 9 nan nan nan nan nan nan nan 0 0 3 5 5 6 10 12 12 13 9 5 5 1 nan nan nan nan nan nan nan nan nan nan nan nan nan nan nan nan nan nan nan nan
40 70 82 105 105 144 152 142 154 154 173 174 150 150 94 35 27 27 41 72 72 65 54 56 56 40 24 13 7 7 1 nan 0 0 15 9 13 13 12 11 11 16 7 11 11 1 nan nan nan nan nan nan nan nan 0 3 3 5 9 12 12 12 8 3 3 nan nan nan nan nan nan nan nan nan nan nan nan nan nan nan nan nan nan nan nan nan
nan 0 5 21 21 63 131 129 176 176 228 209 181 181 122 65 56 56 75 81 81 62 61 81 81 79 71 65 68 68 42 17 46 46 31 5 6 6 3 2 2 5 2 4 4 8 nan nan nan nan nan nan nan nan nan 0 0 0 2 8 8 15 9 nan nan nan nan nan nan nan nan nan nan nan nan nan nan nan nan nan nan nan nan nan nan nan
5 3 nan nan nan nan nan nan nan nan 4 41 91 91 164 177 140 140 89 67 67 58 44 29 29 20 16 23 18 18 29 109 152 152 69 20 56 56 16 16 16 2 0 nan nan 1 11 39 39 nan nan nan nan nan nan 0 0 nan nan nan nan 0 0 nan nan nan nan nan nan nan nan nan nan nan nan nan nan nan nan nan nan nan nan nan nan nan
23 12 2 nan nan nan nan nan nan nan nan nan 1 1 10 40 95 95 101 96 96 91 66 45 45 33 20 11 nan nan nan nan 26 26 88 32 31 31 32 47 47 21 5 nan nan 0 nan 12 12 nan nan nan nan nan nan 0 0 nan nan nan nan nan nan nan nan nan nan nan nan nan nan nan nan nan nan nan nan nan nan nan nan nan nan nan nan nan
7 6 4 2 2 0 nan nan nan nan nan 0 2 2 2 2 6 6 11 15 15 35 8 27 27 27 30 24 10 10 nan nan 1 1 58 38 58 58 67 70 70 40 4 2 2 1 nan nan nan nan nan nan nan nan nan nan nan nan nan nan nan nan nan nan nan nan nan nan nan nan nan nan nan nan nan nan nan nan 0 nan nan nan nan nan nan nan
5 8 9 10 10 8 4 0 nan nan 0 2 6 6 8 4 1 1 1 nan nan nan nan nan nan nan 3 16 10 10 nan nan nan nan 16 18 80 80 69 60 60 67 17 2 2 1 nan 1 1 7 nan nan nan nan nan nan nan nan nan nan nan nan nan nan nan nan nan nan nan nan nan nan nan nan nan nan 0 0 0 nan nan nan nan nan nan nan
12 37 67 89 89 65 24 31 21 21 26 24 22 22 36 31 25 25 15 7 7 8 6 nan nan nan nan nan 1 1 nan nan nan nan nan nan 54 54 80 44 44 55 53 22 22 3 nan nan nan 2 5 nan nan nan nan nan nan nan nan nan nan nan nan nan nan nan nan nan nan nan nan nan nan nan nan nan nan nan 0 nan nan nan nan nan nan nan
70 94 113 116 116 142 145 78 49 49 50 38 60 60 124 73 64 64 68 23 23 16 26 19 19 4 2 1 0 0 0 nan nan nan nan nan 38 38 56 41 41 59 51 40 40 9 1 nan nan 0 nan nan nan nan nan nan nan nan nan nan nan nan nan nan nan nan nan nan nan nan nan nan nan nan nan nan nan nan 1 0 0 nan nan nan nan nan
54 32 15 12 12 20 30 76 83 83 74 29 12 12 44 49 78 78 100 74 74 34 46 40 40 23 36 27 nan nan 2 1 nan nan nan 1 12 12 30 37 37 27 63 54 54 26 6 5 5 nan nan nan nan nan nan nan nan nan nan nan nan nan nan nan nan nan nan nan nan nan nan nan nan nan nan nan nan nan nan nan nan 1 0 nan nan nan
27 16 8 2 2 nan nan 2 34 34 93 104 84 84 75 60 47 47 79 94 94 82 48 34 34 22 nan nan 3 3 3 nan nan nan nan nan nan nan 22 38 38 12 12 26 26 50 32 13 13 4 nan nan nan nan nan nan nan nan nan nan nan nan nan nan nan nan nan nan nan nan nan nan nan nan nan nan nan nan nan nan nan nan nan nan nan nan
6 16 18 11 11 nan nan nan nan nan 2 44 93 93 84 76 47 47 38 55 55 47 14 10 10 9 nan nan 1 1 nan nan nan nan nan nan nan nan 5 45 45 29 17 20 20 45 44 38 38 20 5 1 1 1 nan nan nan nan nan nan nan nan nan nan nan nan nan nan nan nan nan nan nan nan nan nan nan nan nan nan nan nan nan nan nan nan
13 9 11 5 5 nan nan nan nan nan 2 15 7 7 17 19 16 16 21 9 9 3 1 nan nan nan nan nan nan nan nan nan nan nan nan nan nan nan nan 21 21 40 39 45 45 59 88 48 48 50 36 4 6 6 18 nan nan nan nan nan nan nan nan nan nan nan nan nan nan nan nan nan nan nan nan nan nan nan nan nan nan nan nan nan nan nan
26 19 8 4 4 5 0 nan 4 4 5 1 0 0 0 1 3 3 1 nan nan nan nan nan nan nan nan nan nan nan nan nan nan nan nan nan nan nan nan 0 0 16 24 35 35 52 84 80 80 59 56 39 9 9 21 nan nan nan nan nan nan nan nan nan nan nan nan nan nan nan nan nan nan nan nan nan nan nan nan nan nan nan nan nan nan nan
36 31 18 15 15 17 22 26 26 26 25 16 1 1 nan nan 1 1 5 nan nan nan nan nan nan 0 nan nan nan nan nan nan 1 1 nan nan nan nan nan nan nan 12 20 23 23 27 46 94 94 82 37 60 25 25 10 10 10 nan nan nan nan nan nan nan nan nan nan nan nan nan nan nan nan nan nan nan nan nan nan nan nan nan nan nan nan nan
59 53 44 43 43 41 57 63 51 51 30 9 3 3 nan 2 29 29 37 42 42 64 95 77 77 35 16 37 14 14 24 26 14 14 19 5 nan nan nan nan nan 22 28 24 24 29 42 57 57 99 51 59 39 39 23 8 8 nan nan nan nan nan nan nan nan nan nan nan nan nan nan nan nan nan nan nan nan nan nan nan nan nan nan nan nan nan
38 28 32 48 48 50 48 36 41 41 34 33 14 14 11 39 101 101 117 116 116 84 143 107 107 75 69 59 93 93 122 124 79 79 86 62 2 2 2 3 3 23 26 25 25 35 43 49 49 71 43 43 80 80 39 25 25 15 8 nan nan nan nan nan nan nan nan nan nan nan nan nan nan nan nan nan nan nan nan nan nan nan nan nan nan nan
20 4 0 1 1 2 6 9 14 14 6 5 6 6 7 8 12 12 28 55 55 51 25 33 33 47 49 36 25 25 8 7 18 18 52 53 6 6 1 3 3 14 10 7 7 12 25 44 44 41 83 51 79 79 71 51 51 36 21 1 1 nan nan nan nan nan nan nan nan nan nan nan nan nan nan nan nan nan nan nan nan nan nan nan nan nan
1 0 0 3 3 10 7 6 2 2 0 nan nan nan nan 0 1 1 2 3 3 5 0 nan nan 3 6 nan nan nan nan 1 0 0 5 3 1 1 1 0 0 2 2 2 2 3 10 16 16 35 83 74 49 49 64 61 61 54 21 0 0 nan nan nan nan nan nan nan nan nan nan nan nan nan nan nan nan nan nan nan nan nan nan nan nan nan
8 13 13 14 14 10 7 4 1 1 1 nan nan nan nan nan nan nan 0 nan nan 1 7 9 9 12 16 3 nan nan nan 6 4 4 6 3 15 15 8 3 3 1 1 3 3 5 12 7 7 11 44 33 36 36 47 62 62 41 13 nan nan nan nan nan nan nan nan nan nan nan nan nan nan nan nan nan nan nan nan nan nan nan nan nan nan nan
11 15 15 11 11 10 6 3 1 1 2 nan nan nan nan nan 3 3 0 1 1 3 11 20 20 28 35 29 6 6 1 3 14 14 12 8 2 2 12 26 26 6 5 6 6 11 12 7 7 10 16 9 26 26 44 58 58 29 6 nan nan nan nan nan nan nan nan nan nan nan nan nan nan nan nan nan nan nan nan nan nan nan nan nan nan nan
15 13 17 15 15 13 11 6 3 3 2 1 nan nan nan nan nan nan nan 2 2 7 15 23 23 32 47 31 11 11 12 16 12 12 9 8 36 36 70 46 46 13 7 9 9 7 1 4 4 1 0 2 6 6 23 58 58 32 1 nan nan nan nan nan nan nan nan nan nan nan nan nan nan nan nan nan nan nan nan nan nan nan nan nan nan nan
14 4 3 9 9 16 12 8 4 4 0 nan nan nan nan nan nan nan nan 1 1 5 6 6 6 7 17 18 24 24 27 29 21 21 27 65 80 80 51 20 20 16 7 7 7 5 4 4 4 nan nan nan nan nan 0 20 20 20 nan nan nan nan nan nan nan nan nan nan nan nan nan nan nan nan nan nan nan nan nan nan nan nan nan nan nan nan
CIN
-47 -48 -58 -56 -56 -39 -36 -42 nan nan nan nan nan nan nan nan nan nan nan nan nan nan nan nan nan nan nan nan nan nan nan nan nan nan nan nan nan nan nan nan nan nan nan nan nan nan nan nan nan nan nan nan nan nan -43 -13 -13 -0 -0 -0 -0 -0 -0 -0 -0 -3 -2 -0 -0 -0 -0 -5 -20 -20 -37 -40 nan nan -34 -22 -22 -16 -10 -8 -8 -5
nan -57 -61 -52 -52 -44 nan nan nan nan nan nan nan nan nan nan -50 -50 -44 nan nan nan nan nan nan nan -18 nan nan nan nan nan nan nan nan nan nan nan nan nan nan nan nan nan nan nan nan nan nan nan nan nan nan nan nan -16 -16 -10 -7 -4 -4 -1 -1 -3 -3 -4 -4 -2 -1 -1 -2 -12 -29 -29 -40 nan -29 -29 -20 -13 -13 -9 -5 -0 -0 -0
nan -48 -59 -51 -51 -41 -29 -40 nan nan nan nan nan nan nan nan -44 -44 -34 -30 -30 nan nan nan nan nan nan nan nan nan nan nan nan nan nan nan nan nan nan nan nan nan nan nan nan nan nan nan nan nan nan nan nan nan nan nan nan nan -18 -15 -15 -11 -8 -7 -7 -6 -5 -5 -6 -6 -12 -24 -44 -44 -38 -25 -12 -12 -4 -2 -2 -1 -0 -0 -0 -0
nan nan nan -67 -67 -58 -32 -23 -40 -40 -45 -44 nan nan nan nan -34 -34 -35 -15 -15 -13 nan nan nan nan nan nan nan nan nan nan -1 -1 -1 nan nan nan nan nan nan nan nan nan nan nan nan nan nan nan nan nan nan nan nan nan nan nan nan nan nan nan -38 -18 -18 -12 -13 -18 nan nan nan -40 -43 -43 -33 -15 -4 -4 -2 -2 -2 -2 -1 -0 -0 -0
nan nan nan nan nan nan -68 -59 -58 -58 -62 -61 -56 -56 -42 -35 -39 -39 -45 -25 -25 -14 -11 -13 -13 nan nan nan nan nan nan -1 -0 -0 -1 -1 nan nan nan nan nan nan nan nan nan nan nan nan nan nan nan nan nan nan nan nan nan nan nan nan nan nan nan nan nan nan nan nan nan nan nan nan -37 -37 -29 -11 -3 -3 -1 -1 -1 -1 -0 -0 -0 -0
nan nan nan nan nan nan nan nan -87 -87 -77 -68 -47 -47 -30 -31 nan nan nan nan nan nan nan nan nan -20 nan nan nan nan nan -1 -0 -0 -0 -1 nan nan nan nan nan nan nan nan nan nan nan nan nan nan nan nan nan nan nan nan nan nan nan nan nan nan nan nan nan nan nan nan nan nan nan nan -41 -41 -35 -12 -3 -3 -1 -0 -0 -1 -0 -0 -0 -0
nan nan nan nan nan nan nan nan nan nan nan -77 -51 -51 -28 -42 -54 -54 nan nan nan nan nan nan nan nan nan nan nan nan nan -2 -0 -0 -0 -1 -1 -1 -0 -0 -0 -0 -0 -0 -0 -0 -0 -0 -0 -0 nan nan nan nan nan nan nan nan nan nan nan nan nan nan nan nan nan nan nan nan nan nan nan nan nan nan -6 -6 -1 -0 -0 -1 -0 -0 -0 -0
nan nan nan nan nan nan nan nan nan nan nan nan -46 -46 -48 -72 -77 -77 -72 nan nan nan nan nan nan -21 -9 -5 -6 -6 -8 nan nan nan -0 -0 -0 -0 -0 -0 -0 -0 -0 -0 -0 -0 -0 -0 -0 -0 -0 -0 -0 -0 nan nan nan nan nan nan nan nan nan nan nan nan nan nan nan nan nan nan nan nan nan nan nan nan nan -3 -3 -1 -0 -0 -0 -0
nan nan nan nan nan nan nan nan nan nan nan nan -56 -56 -36 -33 -74 -74 -79 -56 -56 -43 nan nan nan -15 -13 -10 -6 -6 -10 -9 nan nan nan nan nan nan -0 -0 -0 -0 -0 -0 -0 -0 -0 -0 -0 -0 -0 -0 -0 -0 nan nan nan nan nan nan nan nan nan nan nan nan nan nan nan nan nan nan nan nan nan nan nan nan nan nan nan -2 -0 -0 -0 -0
nan nan nan nan nan nan nan nan nan nan nan -90 -65 -65 -49 -31 -49 -49 -50 -58 -58 -60 -49 -31 -31 -16 -16 -14 -9 -9 -10 -11 -10 -10 -6 nan nan nan nan nan nan nan -0 -0 -0 -0 -0 -0 -0 -0 -0 -0 -1 -1 nan nan nan nan nan nan nan nan nan nan nan nan nan nan nan nan nan nan nan nan nan nan nan nan nan nan nan nan -2 -0 -0 -0
nan nan nan nan nan nan nan nan nan nan -96 -62 -45 -45 -44 -43 -40 -40 -35 -44 -44 nan nan -47 -47 -33 -19 -15 -13 -13 -15 -8 -10 -10 -12 nan nan nan nan nan nan nan nan -0 -0 -0 -0 -1 -1 -1 -1 -1 -1 -1 nan nan nan nan nan nan nan nan nan nan nan nan nan nan nan nan nan nan nan nan nan nan nan nan nan nan nan nan nan -1 -1 -0
nan nan nan nan nan nan nan nan nan nan -70 -36 -28 -28 -25 -37 -36 -36 -26 -26 -26 nan nan nan nan -53 -31 -19 -16 -16 -18 -27 -25 -25 nan nan nan nan nan nan nan nan nan nan nan nan nan nan nan nan nan nan -2 -2 nan nan nan nan nan nan nan nan nan nan nan nan nan nan nan nan nan nan nan nan nan nan nan nan nan nan nan nan nan nan nan -1
nan nan nan nan nan nan nan nan nan nan -62 -38 -27 -27 -28 -47 -47 -47 -25 -33 -33 -42 nan nan nan -54 -48 -41 -31 -31 -28 -35 -35 -35 nan nan nan nan nan nan nan nan nan nan nan nan nan nan nan nan nan nan nan nan nan nan nan nan nan nan nan nan nan nan nan nan nan nan nan nan nan nan nan nan nan nan nan nan nan nan nan nan nan nan nan -4
nan nan nan nan nan nan nan nan nan nan nan nan -51 -51 -55 -65 -58 -58 -40 -39 -39 -53 -56 -44 -44 -44 -49 -45 -42 -42 -36 -27 -25 -25 nan nan nan nan nan nan nan nan nan nan nan nan nan nan nan nan nan nan nan nan nan nan nan nan nan -1 -1 -1 -1 nan nan nan nan nan nan nan nan nan nan nan nan nan nan nan nan nan nan nan nan nan nan -30
nan nan nan nan nan nan nan nan nan nan nan nan -76 -76 -72 -65 -55 -55 -38 -37 -37 -52 -51 -43 -43 -43 -47 -47 -45 -45 -42 -25 -15 -15 -15 nan nan nan nan nan nan nan nan nan nan nan nan nan nan nan nan nan nan nan nan nan nan -1 -1 -1 -1 -1 -1 nan nan nan nan nan nan nan nan nan nan nan nan nan nan nan nan nan nan nan nan nan nan nan
nan nan nan nan nan nan nan nan nan nan nan nan nan nan nan -53 -41 -41 -36 -40 -40 -43 -36 -32 -32 -31 -42 -65 -60 -60 -49 -31 -16 -16 -13 nan nan nan nan nan nan nan nan nan nan nan nan nan nan nan nan nan nan nan nan nan nan nan -1 -1 -1 -1 nan nan nan nan nan nan nan nan nan nan nan nan nan nan nan nan nan nan nan nan nan nan nan nan
-30 -24 -24 -23 -23 nan nan nan nan nan nan nan nan nan nan nan -49 -49 -41 -39 -39 -32 -21 -21 -21 -18 -27 -52 -67 -67 -60 -43 -32 -32 -23 nan nan nan nan nan nan nan nan nan nan nan nan nan nan nan nan nan nan nan nan nan nan nan -1 -1 -1 -1 nan nan nan nan nan nan nan nan nan nan nan nan nan nan nan nan nan nan nan nan nan nan nan nan
-28 -26 -26 -24 -24 -23 nan nan nan nan nan nan nan nan nan nan -68 -68 -54 -45 -45 -34 -18 -10 -10 -9 -17 -33 -51 -51 -69 -53 -37 -37 -25 nan nan nan nan nan nan nan nan nan nan nan nan nan nan nan nan nan nan nan nan nan nan nan nan nan nan -1 nan -2 -2 nan nan nan nan nan nan nan nan nan nan nan nan nan nan nan nan nan nan nan nan nan
-16 -19 -20 -22 -22 -26 -31 nan nan nan nan nan nan nan nan nan nan nan -69 -49 -49 -34 -20 -6 -6 -3 -6 -21 -43 -43 -72 -54 -27 -27 -25 -23 nan nan nan nan nan nan nan nan nan nan nan nan nan nan nan nan nan nan nan nan nan nan nan nan nan nan -1 -2 -2 -2 nan nan nan nan nan nan nan nan nan nan nan nan nan nan nan nan nan nan nan nan
-7 -10 -15 -19 -19 -26 -30 -27 -24 -24 -24 nan nan nan nan nan -48 -48 -35 -25 -25 -17 -13 -3 -3 -3 -5 -23 -59 -59 -85 -62 -31 -31 -29 -30 -32 -32 -43 nan nan nan nan nan nan nan nan nan nan nan nan nan nan nan nan nan nan nan nan nan nan nan nan -1 -1 -1 nan nan nan nan nan nan nan nan nan nan nan nan nan nan nan nan nan nan nan nan
-5 -6 -11 -20 -20 -23 -23 -33 -32 -32 -41 -60 -58 -58 -48 -38 -25 -25 nan -18 -18 -6 -2 -1 -1 -1 -2 -13 -43 -43 -96 -59 -35 -35 -29 -30 -41 -41 nan nan nan nan nan nan nan nan nan nan nan nan nan nan nan nan nan nan nan nan nan nan nan nan -3 -2 -2 -1 -2 nan nan nan nan nan nan nan nan nan nan nan nan nan nan nan nan nan nan nan
-3 -1 -8 -26 -26 -23 -18 -40 -32 -32 -58 -69 -65 -65 -40 -34 nan nan nan -17 -17 -6 -1 -2 -2 -2 -0 -0 -0 -0 -8 -10 -23 -23 -26 -28 -38 -38 nan nan nan nan nan nan nan nan nan nan nan nan nan nan nan nan nan nan nan nan nan nan nan nan -3 -2 -2 -1 -2 -5 nan nan nan nan nan nan nan nan nan nan nan nan nan nan nan nan nan nan
-3 -4 -11 -19 -19 -23 -26 -38 -38 -38 -51 -59 -50 -50 -42 -38 nan nan nan nan nan nan -11 -8 -8 -9 -9 -9 -7 -7 -5 -3 -2 -2 -3 -8 -28 -28 nan nan nan nan nan nan nan nan nan nan nan nan nan nan nan nan nan nan nan nan nan -9 -9 -5 nan -2 -2 -1 -2 -5 nan nan nan nan nan nan nan nan nan nan nan nan nan nan nan nan nan nan
-3 -6 -14 -18 -18 -32 -39 -36 -44 -44 -46 -44 -43 -43 -72 -70 nan nan nan nan nan nan nan nan nan nan nan nan nan nan -44 -11 -2 -2 -0 -1 -12 -12 nan nan nan nan nan nan nan nan nan nan nan nan nan nan nan nan nan nan nan nan nan -9 -9 -6 -3 -3 -3 -1 -2 -5 nan nan nan nan nan nan nan nan nan nan nan nan nan nan nan nan nan nan
-5 -9 -12 -17 -17 -27 -24 -23 -24 -24 -32 -42 nan nan nan nan -35 -35 -37 -40 -40 nan nan nan nan nan nan nan nan nan nan -67 -5 -5 -0 -1 -8 -8 -28 nan nan nan nan nan nan nan nan nan nan nan nan -12 -6 -6 -5 nan nan nan -9 -7 -7 -5 -4 -3 -3 -2 -2 -5 nan nan nan nan nan nan nan nan nan nan nan nan nan nan nan nan nan nan
-2 -8 -11 -10 -10 -3 -0 -0 -0 -0 -3 -19 -27 -27 -23 -15 -18 -18 -27 -25 -25 -21 -24 -24 -24 nan nan nan nan nan nan nan -9 -9 -2 -2 -3 -3 -16 nan nan nan nan nan nan nan nan nan nan nan nan -11 -3 -3 -2 -2 -2 -2 -3 -3 -3 -3 -3 -3 -3 -3 -3 -6 nan nan nan nan nan nan nan nan nan nan nan nan nan nan nan nan nan nan
-0 -0 -0 -0 -0 -0 -0 -0 -0 -0 -0 -0 -7 -7 -8 -10 -8 -8 -4 -7 -7 -9 -9 -13 -13 -22 -30 nan nan nan nan nan -22 -22 -5 -3 -2 -2 -17 nan nan nan nan nan nan nan nan nan nan nan nan -13 -5 -5 -1 -0 -0 -0 -1 -1 -1 -2 -3 -3 -3 -4 -4 -8 nan nan nan nan nan nan nan nan nan nan nan nan nan nan nan nan nan nan
-0 -0 -0 -0 -0 -0 -0 -0 -0 -0 -0 -0 -0 -0 -1 -8 -4 -4 -4 -2 -2 -4 -4 -10 -10 -15 -23 nan nan nan nan nan -29 -29 -7 -2 -2 -2 -10 -23 -23 nan nan nan nan nan nan nan nan nan nan nan -12 -12 -3 -1 -1 -0 -0 -0 -0 -1 -3 -4 -4 -5 nan nan nan nan nan nan nan nan nan nan nan nan nan nan nan nan nan nan nan nan
-0 -0 -0 -0 -0 -0 -0 -0 -0 -0 -0 -0 -0 -0 -0 -11 -5 -5 -3 -5 -5 -4 -2 -2 -2 -4 -12 -19 nan nan nan nan -49 -49 -15 -1 -2 -2 -12 -16 -16 -6 -10 -14 -14 nan nan nan nan nan nan nan -13 -13 -6 -3 -3 -2 -0 -0 -0 -1 -3 -6 -6 -8 nan nan nan nan nan nan nan nan nan nan nan nan nan nan nan nan nan nan nan nan
-2 -0 -0 -0 -0 -0 -0 -0 -0 -0 -0 -0 -0 -0 -0 -19 -13 -13 -6 -6 -6 -2 -1 -2 -2 -6 -9 -7 -20 -20 -27 nan -76 -76 -32 -2 -4 -4 -18 -18 -18 -12 -19 -17 -17 -13 nan nan nan nan nan nan nan nan -13 -5 -5 -2 -1 -1 -1 -1 -3 -8 -8 nan nan nan nan nan nan nan nan nan nan nan nan nan nan nan nan nan nan nan nan nan
nan -54 -16 -10 -10 -8 -1 -1 -0 -0 -0 -0 -0 -0 -0 -11 -8 -8 -4 -2 -2 -0 -1 -1 -1 -2 -3 -2 -2 -2 -9 -37 -58 -58 -29 -2 -5 -5 -20 -18 -18 -12 -20 -13 -13 -6 nan nan nan nan nan nan nan nan nan -8 -8 -5 -3 -1 -1 -1 -3 nan nan nan nan nan nan nan nan nan nan nan nan nan nan nan nan nan nan nan nan nan nan nan
-9 -11 nan nan nan nan nan nan nan nan -37 -19 -12 -12 -5 -3 -1 -1 -0 -0 -0 -0 -0 -0 -0 -0 -0 -0 -0 -0 -4 -9 -9 -9 -3 -1 -0 -0 -17 -10 -10 -13 -13 nan nan -11 -7 -14 -14 nan nan nan nan nan nan -7 -7 nan nan nan nan -5 -8 nan nan nan nan nan nan nan nan nan nan nan nan nan nan nan nan nan nan nan nan nan nan nan
-1 -4 -13 nan nan nan nan nan nan nan nan nan -28 -28 -26 -24 -14 -14 -13 -9 -9 -3 -0 -0 -0 -0 -0 -0 nan nan nan nan -49 -49 -16 -6 -1 -1 -1 -2 -2 -5 -6 nan nan -11 nan -17 -17 nan nan nan nan nan nan -6 -6 nan nan nan nan nan nan nan nan nan nan nan nan nan nan nan nan nan nan nan nan nan nan nan nan nan nan nan nan nan
-9 -6 -7 -10 -10 -14 nan nan nan nan nan -24 -24 -24 -28 -36 -37 -37 -33 -32 -32 -27 -26 -12 -12 -4 -1 -0 -2 -2 nan nan -77 -77 -34 -15 -4 -4 -2 -0 -0 -1 -5 -6 -6 -5 nan nan nan nan nan nan nan nan nan nan nan nan nan nan nan nan nan nan nan nan nan nan nan nan nan nan nan nan nan nan nan nan -1 nan nan nan nan nan nan nan
-10 -4 -6 -9 -9 -7 -9 -22 nan nan -17 -21 -21 -21 -22 -37 -50 -50 -54 nan nan nan nan nan nan nan -19 -7 -5 -5 nan nan nan nan -54 -33 -6 -6 -3 -3 -3 -1 -1 -1 -1 -9 nan -6 -6 -7 nan nan nan nan nan nan nan nan nan nan nan nan nan nan nan nan nan nan nan nan nan nan nan nan nan nan -1 -1 -0 nan nan nan nan nan nan nan
-6 -0 -0 -0 -0 -0 -0 -0 -2 -2 -3 -11 -18 -18 -21 -23 -30 -30 -41 -52 -52 -47 -51 nan nan nan nan nan -22 -22 nan nan nan nan nan nan -16 -16 -2 -4 -4 -3 -1 -0 -0 -1 nan nan nan -6 -6 nan nan nan nan nan nan nan nan nan nan nan nan nan nan nan nan nan nan nan nan nan nan nan nan nan nan nan -1 nan nan nan nan nan nan nan
-0 -0 -1 -3 -3 -2 -1 -2 -0 -0 -0 -0 -0 -0 -0 -0 -2 -2 -8 -39 -39 -52 -40 -45 -45 -53 -56 -53 -47 -47 -37 nan nan nan nan nan -20 -20 -2 -4 -4 -5 -2 -1 -1 -0 -1 nan nan -29 nan nan nan nan nan nan nan nan nan nan nan nan nan nan nan nan nan nan nan nan nan nan nan nan nan nan nan nan -0 -0 -0 nan nan nan nan nan
-6 -11 -17 -19 -19 -15 -12 -6 -4 -4 -1 -0 -0 -0 -0 -4 -14 -14 -18 -26 -26 -42 -22 -21 -21 -36 -32 -35 nan nan -55 -52 nan nan nan -58 -29 -29 -6 -3 -3 -7 -4 -3 -3 -1 -0 -0 -0 nan nan nan nan nan nan nan nan nan nan nan nan nan nan nan nan nan nan nan nan nan nan nan nan nan nan nan nan nan nan nan nan -0 -0 nan nan nan
-10 -14 -21 -25 -25 nan nan -22 -17 -17 -12 -5 -1 -1 -1 -15 -37 -37 -36 -30 -30 -25 -23 -19 -19 -28 nan nan -73 -73 -74 nan nan nan nan nan nan nan -10 -3 -3 -9 -12 -9 -9 -2 -0 -0 -0 -0 nan nan nan nan nan nan nan nan nan nan nan nan nan nan nan nan nan nan nan nan nan nan nan nan nan nan nan nan nan nan nan nan nan nan nan nan
-11 -10 -9 -7 -7 nan nan nan nan nan -34 -24 -14 -14 -12 -13 -28 -28 -38 -31 -31 -34 -65 -70 -70 -61 nan nan -84 -84 nan nan nan nan nan nan nan nan -28 -3 -3 -4 -7 -9 -9 -5 -2 -0 -0 -0 -1 -34 -58 -58 nan nan nan nan nan nan nan nan nan nan nan nan nan nan nan nan nan nan nan nan nan nan nan nan nan nan nan nan nan nan nan nan
-4 -8 -8 -6 -6 nan nan nan nan nan -33 -39 -36 -36 -33 -34 -40 -40 -34 -45 -45 -55 -63 nan nan nan nan nan nan nan nan nan nan nan nan nan nan nan nan -6 -6 -3 -3 -3 -3 -3 -3 -2 -2 -2 -1 -3 -4 -4 -5 nan nan nan nan nan nan nan nan nan nan nan nan nan nan nan nan nan nan nan nan nan nan nan nan nan nan nan nan nan nan nan
-0 -4 -5 -5 -5 -4 -13 nan -32 -32 -38 -45 -42 -42 -45 -46 -45 -45 -54 nan nan nan nan nan nan nan nan nan nan nan nan nan nan nan nan nan nan nan nan -28 -28 -5 -3 -1 -1 -1 -2 -3 -3 -6 -8 -6 -2 -2 -2 nan nan nan nan nan nan nan nan nan nan nan nan nan nan nan nan nan nan nan nan nan nan nan nan nan nan nan nan nan nan nan
-3 -3 -5 -5 -5 -4 -2 -5 -7 -7 -8 -10 -25 -25 nan nan -45 -45 -32 nan nan nan nan nan nan -53 nan nan nan nan nan nan -79 -79 nan nan nan nan nan nan nan -5 -3 -1 -1 -1 -2 -1 -1 -4 -14 -13 -6 -6 -4 -12 -12 nan nan nan nan nan nan nan nan nan nan nan nan nan nan nan nan nan nan nan nan nan nan nan nan nan nan nan nan nan
-1 -3 -5 -7 -7 -8 -3 -1 -0 -0 -1 -8 -18 -18 nan -19 -9 -9 -12 -15 -15 -12 -9 -12 -12 -17 -11 -2 -15 -15 -21 -32 -56 -56 -46 -62 nan nan nan nan nan -5 -3 -2 -2 -1 -2 -1 -1 -1 -12 -15 -10 -10 -9 -20 -20 nan nan nan nan nan nan nan nan nan nan nan nan nan nan nan nan nan nan nan nan nan nan nan nan nan nan nan nan nan
-4 -7 -9 -8 -8 -4 -2 -3 -2 -2 -2 -4 -9 -9 -13 -12 -5 -5 -4 -5 -5 -8 -3 -6 -6 -1 -0 -1 -1 -1 -2 -6 -17 -17 -19 -22 -76 -76 -54 -30 -30 -8 -4 -3 -3 -2 -1 -1 -1 -2 -9 -12 -6 -6 -9 -15 -15 -21 -14 nan nan nan nan nan nan nan nan nan nan nan nan nan nan nan nan nan nan nan nan nan nan nan nan nan nan nan
-11 -15 -23 -21 -21 -16 -9 -8 -6 -6 -7 -7 -9 -9 -13 -18 -19 -19 -12 -7 -7 -7 -13 -13 -13 -6 -2 -7 -13 -13 -22 -39 -41 -41 -33 -33 -50 -50 -64 -47 -47 -17 -9 -7 -7 -5 -3 -1 -1 -3 -3 -6 -4 -4 -5 -7 -7 -13 -15 -12 -12 nan nan nan nan nan nan nan nan nan nan nan nan nan nan nan nan nan nan nan nan nan nan nan nan nan
-21 -21 -22 -15 -15 -7 -8 -10 -10 -10 -10 nan nan nan nan -19 -17 -17 -16 -15 -15 -12 -21 nan nan -12 -10 nan nan nan nan -30 -47 -47 -52 -72 -72 -72 -62 -63 -63 -35 -22 -17 -17 -6 -5 -5 -5 -3 -2 -1 -3 -3 -3 -5 -5 -7 -13 -18 -18 nan nan nan nan nan nan nan nan nan nan nan nan nan nan nan nan nan nan nan nan nan nan nan nan nan
-10 -8 -7 -5 -5 -6 -9 -11 -11 -11 -9 nan nan nan nan nan nan nan -18 nan nan -14 -6 -6 -6 -6 -7 -12 nan nan nan -13 -29 -29 -28 -46 -49 -49 -50 -39 -39 -28 -4 -3 -3 -3 -3 -7 -7 -7 -2 -2 -1 -1 -3 -4 -4 -6 -13 nan nan nan nan nan nan nan nan nan nan nan nan nan nan nan nan nan nan nan nan nan nan nan nan nan nan nan
-10 -7 -5 -6 -6 -7 -9 -11 -9 -9 -7 nan nan nan nan nan -5 -5 -15 -15 -15 -11 -5 -3 -3 -3 -3 -5 -14 -14 -20 -21 -18 -18 -21 -27 -57 -57 -44 -17 -17 -5 -3 -2 -2 -2 -3 -5 -5 -5 -4 -3 -1 -1 -2 -4 -4 -8 -18 nan nan nan nan nan nan nan nan nan nan nan nan nan nan nan nan nan nan nan nan nan nan nan nan nan nan nan
-9 -5 -3 -5 -5 -6 -7 -7 -7 -7 -6 -7 nan nan nan nan nan nan nan -15 -15 -7 -4 -2 -2 -2 -2 -5 -13 -13 -15 -15 -20 -20 -25 -30 -29 -29 -12 -3 -3 -2 -1 -1 -1 -2 -7 -4 -4 -10 -12 -4 -2 -2 -1 -2 -2 -7 -26 nan nan nan nan nan nan nan nan nan nan nan nan nan nan nan nan nan nan nan nan nan nan nan nan nan nan nan
-1 -4 -5 -6 -6 -4 -6 -5 -4 -4 -11 nan nan nan nan nan nan nan nan -9 -9 -7 -7 -6 -6 -4 -3 -5 -7 -7 -12 -13 -18 -18 -20 -24 -26 -26 -4 -1 -1 -0 -1 -1 -1 -1 -2 -2 -2 nan nan nan nan nan -3 -2 -2 -5 nan nan nan nan nan nan nan nan nan nan nan nan nan nan nan nan nan nan nan nan nan nan nan nan nan nan nan nan
Wind_Speed
5 5 4 5 5 5 6 7 8 9 8 7 7 7 5 4 4 5 5 5 5 5 5 5 6 6 6 7 9 10 11 12 12 12 12 12 11 11 10 10 9 9 8 8 8 7 7 7 7 6 6 6 6 7 8 9 10 11 12 12 13 13 13 13 13 13 13 13 13 13 13 13 13 13 13 13 13 13 13 13 14 14 14 14 14 14
5 5 4 6 7 7 7 9 10 10 10 10 9 8 7 6 5 4 4 4 5 5 5 6 6 6 7 6 7 9 10 11 12 12 12 12 12 12 12 12 11 11 10 10 9 9 8 8 7 7 7 7 7 7 8 9 9 10 11 12 12 13 13 14 14 14 14 14 14 14 14 14 13 13 12 13 14 14 14 14 14 14 15 15 15 15
6 6 5 6 7 8 7 9 9 10 10 10 9 8 9 8 7 4 3 4 4 5 5 5 6 6 7 6 7 8 10 11 12 12 12 12 12 12 12 12 12 12 11 11 10 10 9 9 9 8 8 8 8 8 8 9 9 9 10 11 11 12 12 13 13 13 14 14 14 14 14 14 13 13 13 14 15 15 15 15 15 15 15 15 16 16
7 7 7 5 6 7 8 8 8 7 7 8 8 8 9 8 6 5 4 4 4 5 5 6 6 6 5 5 6 7 9 11 12 13 13 12 12 12 12 12 12 12 12 11 11 11 10 10 10 10 10 10 10 10 10 10 10 10 10 10 11 11 11 11 12 12 12 13 13 13 13 13 13 13 13 14 15 16 16 15 15 15 15 16 16 17
7 8 7 6 6 7 7 7 6 6 5 6 6 7 7 6 5 4 4 5 5 5 5 6 6 6 5 4 5 7 9 11 12 13 13 13 13 13 12 12 12 12 12 12 11 11 11 11 11 11 11 11 12 12 11 11 11 11 11 11 11 11 11 12 11 11 12 12 12 12 13 13 13 13 13 14 15 16 16 16 16 15 15 16 16 17
8 7 6 6 6 6 6 6 6 6 5 5 5 5 5 5 4 4 4 4 5 5 5 6 6 7 6 5 5 7 9 11 12 13 14 13 13 13 13 13 13 13 13 12 12 12 12 12 12 12 12 12 13 13 13 13 13 12 12 13 13 13 12 12 12 12 11 11 11 12 12 12 12 13 13 14 15 16 17 16 16 16 16 16 17 17
8 6 6 6 6 6 6 6 6 6 6 5 5 5 5 4 5 5 5 5 5 5 4 5 6 6 7 7 7 7 8 9 11 13 14 14 14 14 14 14 14 14 13 13 13 13 13 13 13 13 13 13 13 13 13 13 13 13 13 13 13 13 13 13 12 12 12 11 11 11 12 12 12 13 14 14 15 16 16 17 17 17 17 17 17 17
9 8 7 7 6 6 6 6 6 6 7 7 6 6 6 5 5 5 5 6 6 6 5 5 5 6 7 7 7 7 7 8 9 10 12 13 13 14 14 14 14 15 14 14 14 14 14 14 14 14 14 14 14 14 14 13 13 13 13 13 13 13 13 13 13 12 12 12 12 12 12 12 12 13 14 15 15 15 16 17 17 18 18 17 17 17
10 9 8 7 7 7 7 7 7 6 6 7 7 7 8 7 6 5 5 5 5 6 5 5 6 6 7 7 7 8 8 7 8 8 9 10 11 12 13 14 15 15 16 16 16 16 16 15 15 15 15 15 14 14 14 14 13 13 13 13 13 13 13 13 13 13 13 13 13 12 12 12 13 14 14 15 15 15 15 16 17 18 18 18 18 18
10 10 9 8 7 7 8 8 8 7 7 7 6 7 7 8 7 6 5 5 5 4 4 5 6 6 6 7 7 7 8 8 9 10 11 10 11 12 12 13 13 14 16 16 17 17 17 17 16 16 16 16 15 15 14 14 14 13 13 13 13 13 13 13 14 14 14 14 13 13 13 13 13 14 15 15 15 15 15 15 16 16 17 18 18 18
9 9 9 8 7 7 7 8 7 7 6 6 5 5 5 5 5 5 6 6 5 4 4 4 5 6 6 6 6 7 7 7 8 9 10 10 11 11 11 11 11 12 14 16 17 17 18 18 17 17 17 17 16 15 15 14 14 14 14 14 14 14 14 14 14 14 14 14 14 14 14 14 14 15 15 16 16 15 15 15 15 15 16 16 17 18
8 7 6 7 6 6 6 6 6 6 5 4 4 4 5 5 4 5 6 7 6 6 5 5 5 5 6 6 6 6 6 5 5 5 6 6 7 7 7 7 8 9 11 13 14 16 17 18 18 18 17 17 17 16 15 15 15 15 15 16 16 15 15 15 15 15 15 15 15 14 14 14 15 15 16 16 16 16 15 15 14 14 14 15 16 17
7 6 6 6 6 6 6 6 5 5 5 5 6 6 6 5 5 5 6 7 7 7 6 6 5 5 5 5 5 5 5 4 3 2 3 3 4 4 4 5 5 6 7 8 9 11 14 16 17 17 17 17 17 17 17 16 16 16 17 17 17 17 16 16 16 16 16 15 15 15 14 15 15 16 16 16 16 16 15 15 14 14 14 14 15 16
7 7 7 7 7 6 6 6 6 6 6 6 6 6 6 5 5 5 6 6 6 6 6 6 6 6 5 5 5 5 4 3 2 2 3 3 4 4 4 4 5 5 5 6 7 8 11 12 13 14 16 17 17 17 18 17 18 18 18 18 18 18 18 17 17 17 16 16 16 15 15 15 15 16 16 17 16 16 16 15 15 14 14 14 15 16
7 7 8 8 7 6 6 6 7 7 7 6 6 5 5 5 5 5 5 6 6 5 5 6 7 6 5 5 5 5 5 4 4 3 4 4 4 4 5 5 5 5 5 6 7 8 9 10 9 10 12 15 17 17 18 18 19 20 20 20 19 19 19 19 18 18 17 17 17 16 15 15 16 16 17 17 17 16 16 15 15 15 15 15 15 16
7 7 8 8 8 7 7 6 7 7 7 6 6 6 6 6 5 5 5 6 5 5 5 6 6 6 5 4 5 5 5 5 5 5 5 4 4 4 5 5 5 5 5 6 6 7 7 8 8 9 10 14 16 18 19 19 20 21 21 21 20 20 20 19 19 19 18 18 17 17 16 16 16 17 17 18 17 17 16 15 15 14 14 15 15 15
8 8 8 8 8 8 7 7 7 7 7 6 6 6 6 6 6 5 5 5 4 4 5 5 5 5 4 4 3 4 5 5 4 4 4 4 4 4 5 5 5 6 5 5 5 5 5 6 7 8 8 12 16 18 19 20 21 21 22 22 21 21 20 20 20 19 19 19 18 17 17 16 17 17 18 18 18 17 17 16 15 14 14 14 15 15
8 8 8 8 8 7 7 7 7 7 6 7 6 6 6 6 6 6 5 5 4 4 4 3 3 4 3 3 2 2 4 4 4 4 4 4 4 4 5 5 5 6 6 5 5 5 5 6 6 7 7 12 15 17 19 20 21 21 22 22 22 21 21 20 20 20 20 19 19 18 17 17 17 18 19 19 18 18 17 16 15 14 14 14 14 15
9 9 9 9 8 7 7 7 7 7 7 6 6 5 5 5 5 5 5 5 5 4 4 3 3 4 4 4 2 1 3 4 4 3 4 4 4 3 4 4 5 6 6 5 5 4 4 5 6 8 8 10 12 15 18 20 21 21 22 22 21 21 21 21 21 20 20 20 19 19 18 18 18 18 19 19 18 18 17 16 15 14 13 13 13 14
11 10 10 9 9 8 8 7 6 6 6 6 6 6 6 5 6 6 7 6 6 5 4 4 5 5 4 4 3 1 2 3 3 4 4 4 4 4 4 4 5 6 5 5 4 4 4 5 6 7 8 9 10 12 14 17 19 20 21 21 21 21 21 21 21 20 20 20 19 19 18 18 18 19 19 19 18 18 17 16 15 14 13 12 11 11
12 12 11 10 9 9 8 6 6 6 7 6 5 5 5 5 5 5 6 6 6 6 6 6 5 5 4 5 5 3 2 1 2 3 3 4 4 4 4 4 5 6 6 5 4 4 4 5 5 5 7 8 9 10 11 14 16 18 19 20 20 20 20 20 20 20 20 20 19 19 19 18 19 19 19 19 19 18 18 17 16 15 13 12 11 10
12 12 12 12 11 10 9 8 8 8 8 6 5 4 4 4 4 5 5 4 5 6 6 7 6 6 5 6 7 6 4 3 3 3 3 4 5 5 3 4 5 5 6 5 4 4 4 4 5 5 7 9 10 10 11 12 13 15 17 18 18 19 20 20 20 20 20 20 20 19 19 19 19 20 20 19 19 19 18 18 17 16 15 13 12 11
12 12 12 12 12 11 10 9 9 8 8 7 6 6 4 4 5 5 5 5 5 6 7 7 7 6 6 6 7 6 4 3 3 4 4 6 6 5 2 4 4 5 5 5 4 4 4 5 5 6 7 9 10 11 11 12 12 13 15 16 17 18 19 19 20 20 20 20 20 20 19 20 20 20 20 20 20 19 19 18 18 17 16 15 13 12
12 12 11 11 10 10 9 9 8 8 7 7 7 6 5 5 6 6 5 5 6 6 6 7 7 7 7 7 7 6 4 3 3 3 4 5 6 5 2 3 4 5 5 4 3 4 4 4 4 5 5 8 9 11 12 12 13 14 15 15 16 17 18 19 19 20 20 20 20 20 20 20 20 21 21 21 20 20 19 19 18 18 17 16 15 14
12 11 10 10 10 11 11 10 10 10 9 8 7 7 7 7 8 8 8 7 7 7 7 7 8 8 7 6 6 5 3 2 3 3 4 4 4 4 3 2 3 4 4 3 3 3 4 4 4 4 4 6 8 10 12 13 14 15 15 16 16 17 17 18 19 19 20 20 20 20 20 20 21 21 21 21 21 20 20 19 19 18 18 17 16 15
16 15 15 16 17 19 19 19 18 17 16 13 10 8 8 8 8 8 8 8 8 8 8 8 8 8 6 5 6 5 3 2 3 4 4 3 3 3 2 2 2 3 3 3 3 3 3 3 3 3 3 4 6 9 12 13 15 15 16 16 16 16 17 18 19 19 20 20 20 20 20 21 21 21 21 21 21 20 20 19 19 18 18 17 16 15
24 24 25 25 25 25 25 25 24 24 24 21 18 14 11 9 8 8 9 8 8 8 9 9 8 7 6 5 6 5 4 2 3 4 3 3 3 3 2 2 2 3 3 3 3 2 2 2 3 3 3 3 4 6 10 12 14 15 16 16 16 16 17 17 18 19 20 20 20 20 21 21 21 21 21 21 21 20 20 20 19 19 17 16 14 13
23 24 25 25 26 26 26 26 26 26 26 26 25 22 16 11 9 9 9 8 8 8 9 9 8 7 6 6 6 5 4 3 3 3 3 3 3 3 2 1 2 2 2 2 1 1 2 2 2 3 3 3 3 5 7 10 12 13 14 15 15 16 16 17 18 19 19 20 20 21 21 21 22 22 22 21 21 21 20 20 20 19 16 13 10 8
16 17 18 20 21 22 23 23 24 24 25 26 26 24 18 12 10 9 9 7 8 9 10 10 9 8 7 7 7 6 5 5 4 3 3 3 4 4 2 2 2 2 2 2 1 1 1 2 2 3 4 4 4 4 5 6 8 10 11 13 14 14 15 16 17 18 19 20 20 21 21 22 22 22 22 22 21 21 21 21 20 17 13 10 8 7
10 11 12 13 14 14 14 14 15 17 20 22 23 22 18 12 10 9 9 8 8 9 10 9 9 8 8 7 6 5 5 5 3 2 3 3 4 3 2 2 3 3 2 2 2 2 2 3 3 4 4 5 5 4 3 4 4 5 6 8 10 12 14 16 17 18 19 20 20 21 21 22 22 22 22 22 22 22 22 21 18 14 9 8 7 7
11 11 10 10 9 9 9 8 9 10 12 15 16 16 13 10 9 8 8 7 8 9 9 8 7 7 7 6 5 4 3 2 0 1 1 3 3 3 2 3 3 3 3 2 2 2 2 2 3 3 4 4 4 4 3 3 3 3 3 4 6 8 11 13 15 16 18 19 20 21 22 22 22 22 22 22 22 22 22 21 17 13 8 8 7 7
12 11 11 10 9 8 8 8 7 7 8 8 9 9 9 9 8 7 7 7 7 7 6 6 5 5 6 6 5 4 2 0 1 1 1 2 3 3 2 4 4 4 3 4 4 3 3 2 1 2 2 3 3 3 3 3 3 2 2 3 3 5 8 10 12 14 15 18 20 22 22 22 22 22 22 22 23 23 23 22 18 13 9 8 8 7
11 10 9 10 9 9 8 8 8 8 7 7 7 8 8 8 8 8 7 6 6 5 5 4 4 4 5 5 5 4 2 2 1 1 1 1 2 2 2 3 4 4 4 4 5 4 3 2 1 1 1 1 2 2 2 3 2 2 2 3 3 3 5 7 8 10 11 13 16 19 22 22 23 23 23 23 23 23 23 22 19 15 10 8 8 8
10 10 10 9 9 9 8 8 8 8 8 8 8 8 8 8 8 8 7 7 6 6 5 5 4 4 4 4 4 4 3 3 3 4 2 2 2 2 2 3 4 4 4 5 5 4 3 3 2 1 1 1 1 2 2 2 2 2 2 2 2 2 3 4 5 6 7 9 10 12 16 17 20 22 22 22 23 23 23 22 19 16 13 10 9 8
10 10 9 8 8 8 8 8 8 9 8 8 9 9 9 8 8 7 7 7 6 6 5 5 5 4 4 4 4 4 4 3 4 5 4 2 2 2 2 3 3 3 4 4 4 3 3 4 3 3 2 2 2 2 2 2 2 2 1 2 2 2 3 3 3 4 5 6 6 7 9 10 12 15 17 19 21 22 22 21 20 17 15 13 11 9
7 7 6 6 6 6 7 7 8 8 8 8 7 7 7 7 6 6 5 5 5 5 5 5 5 5 4 4 4 5 5 4 5 5 5 3 3 2 3 3 3 3 3 4 3 3 3 3 4 4 3 3 2 2 2 2 1 1 1 2 2 3 3 3 3 3 4 5 5 5 6 7 8 9 11 16 19 21 22 21 20 18 16 15 13 11
5 5 4 5 5 5 5 5 6 6 7 7 7 7 7 7 6 5 5 4 4 4 5 5 5 5 5 5 5 5 5 5 5 6 7 5 4 3 4 4 4 4 3 3 3 3 2 3 3 3 3 3 3 2 2 2 1 1 1 2 2 3 3 3 3 3 4 5 5 5 6 6 7 8 9 14 17 19 20 20 19 17 16 15 14 13
5 5 5 5 5 5 5 5 4 4 4 5 6 7 7 6 5 4 3 3 3 4 4 5 5 5 6 7 6 6 6 6 7 8 8 6 5 5 6 6 6 5 4 4 4 3 3 3 3 3 3 3 3 2 2 2 2 2 2 2 2 2 3 3 3 3 4 4 5 5 6 6 6 7 8 10 11 12 12 12 13 14 14 14 14 14
6 6 6 6 6 5 5 5 5 4 4 4 5 6 6 5 4 3 3 3 3 3 4 4 5 5 6 7 8 8 8 8 8 8 9 7 6 6 6 7 7 7 6 5 5 4 4 3 3 2 2 2 2 2 2 2 2 2 2 1 1 2 2 2 2 3 4 5 5 6 6 6 6 6 7 8 8 8 8 8 8 9 10 8 9 11
6 7 7 8 7 6 6 7 6 6 5 5 5 5 5 4 4 3 3 3 4 4 5 5 5 5 6 7 7 8 9 8 8 8 8 7 6 6 6 7 7 7 7 7 6 6 5 5 4 4 3 2 2 2 2 2 2 2 2 1 1 2 2 2 2 2 3 4 5 6 6 5 6 7 8 8 9 9 8 7 7 8 8 7 6 7
6 6 7 7 7 7 7 7 7 6 6 4 4 4 3 3 2 3 3 3 4 4 5 5 5 6 6 7 7 8 9 9 9 9 8 8 8 8 7 7 7 6 6 7 7 7 7 7 6 5 4 3 3 2 2 2 3 4 4 3 2 2 2 2 2 2 3 4 5 6 7 7 7 8 8 9 8 8 8 8 8 8 7 6 6 6
6 6 6 6 6 7 7 7 7 7 6 4 4 3 3 3 3 3 3 3 3 4 4 4 4 5 6 7 7 8 8 9 9 9 10 10 10 9 8 7 7 6 6 6 7 7 7 7 6 5 5 4 4 3 3 2 3 4 4 3 2 2 1 2 2 2 2 3 4 5 7 7 7 7 8 8 7 7 7 8 9 9 8 6 6 6
5 5 5 6 6 7 7 8 7 7 6 5 4 4 3 4 4 4 4 4 4 4 4 4 4 5 5 6 6 6 6 7 8 9 10 10 10 10 9 9 8 7 6 6 6 6 6 7 7 6 5 5 5 5 5 3 3 3 3 4 3 3 1 2 2 2 3 3 4 5 6 6 6 6 7 6 6 6 7 7 9 10 9 7 6 5
5 5 4 4 5 5 5 5 5 5 4 4 4 4 4 4 5 5 4 4 4 4 4 4 4 5 6 6 6 5 5 6 6 8 8 9 9 9 9 9 8 7 6 6 5 5 4 6 6 6 5 5 5 5 5 4 3 3 4 4 5 5 4 3 3 4 4 4 4 4 5 5 5 5 5 5 6 6 7 7 7 7 7 7 6 6
4 4 4 3 3 3 3 3 3 3 4 4 4 4 4 4 5 5 4 4 4 4 4 4 4 4 4 4 4 4 4 5 5 5 6 7 8 9 8 8 7 7 7 6 5 5 4 5 5 4 3 4 5 5 5 6 5 5 5 6 6 6 5 4 4 5 5 5 4 4 4 5 5 6 6 6 6 6 7 7 8 7 7 6 6 6
4 4 4 3 3 3 4 4 3 3 3 4 4 4 4 4 4 4 5 5 5 5 5 4 4 4 5 5 4 4 4 4 4 4 4 4 5 5 6 6 6 6 5 6 6 6 5 5 5 4 4 4 5 5 6 6 6 6 5 6 7 6 5 4 5 5 6 6 5 5 5 6 6 6 6 6 6 6 6 7 8 8 8 7 7 7
4 4 4 4 4 4 4 4 3 4 4 4 4 4 4 4 4 5 5 5 5 5 5 4 5 5 6 5 5 4 4 5 5 4 4 3 4 4 4 5 5 5 5 5 6 6 6 6 6 5 5 5 5 5 5 6 6 6 5 6 6 6 5 5 5 6 6 6 6 6 7 7 6 6 6 6 6 6 6 6 7 7 8 8 8 7
5 5 5 4 4 4 4 4 4 4 5 5 5 4 4 4 5 5 5 5 5 5 5 5 6 6 7 6 6 5 5 6 5 5 4 4 4 4 4 4 4 4 5 5 5 6 6 6 6 6 6 6 5 5 5 5 6 6 5 5 6 6 6 5 5 6 6 6 7 7 8 7 7 7 7 6 6 6 6 6 6 6 7 7 7 7
5 4 4 4 4 4 5 5 5 5 5 5 5 5 4 5 6 7 5 5 5 5 5 6 6 6 7 7 6 6 6 6 5 5 5 5 4 3 3 3 3 3 3 4 4 5 5 5 6 6 6 7 6 5 5 5 5 5 5 5 6 6 6 5 5 6 6 6 7 7 8 7 7 6 7 7 7 7 6 6 6 5 6 6 7 7
4 4 4 4 4 5 5 5 5 6 6 6 6 5 5 5 5 5 5 5 5 5 5 6 6 7 7 7 7 7 7 6 6 5 5 4 3 3 2 3 3 3 3 3 3 3 3 4 5 6 7 7 7 6 5 5 5 5 5 5 5 5 5 5 5 6 6 6 7 7 8 7 6 6 6 7 7 7 7 6 6 6 5 6 6 6
4 3 3 4 5 5 5 6 6 6 6 6 6 6 6 5 5 6 6 6 6 6 6 6 6 7 8 8 8 7 7 6 6 5 5 4 3 2 3 3 3 3 3 3 3 3 2 2 3 4 6 8 9 8 6 5 5 4 5 5 5 5 5 5 5 6 7 6 7 7 8 7 6 6 6 6 7 7 7 7 6 6 6 6 6 6
Wind_Direction
271 275 277 278 278 276 272 270 272 273 272 270 270 269 259 238 229 231 235 238 244 249 251 253 254 250 238 220 217 219 222 225 225 224 221 218 214 211 208 206 205 205 205 206 207 208 208 211 214 218 222 223 222 220 220 220 220 219 218 218 218 219 219 221 222 224 225 227 229 231 232 228 221 212 204 204 205 208 210 211 214 216 219 220 221 221
270 270 268 263 261 261 262 258 258 259 262 263 264 265 265 252 239 224 219 224 231 240 249 253 255 255 252 234 219 216 219 224 225 225 223 220 216 213 209 206 204 203 203 205 206 208 209 210 213 216 220 223 224 224 224 223 222 221 220 220 221 222 223 224 225 226 227 228 230 231 233 232 226 217 205 204 205 208 211 212 214 215 217 219 220 221
269 267 261 255 251 251 254 252 249 249 251 255 257 259 262 260 252 236 217 219 223 230 240 247 252 254 253 243 226 216 219 223 226 227 226 223 219 216 212 209 206 205 204 204 206 207 209 210 213 215 218 221 224 225 227 226 225 224 224 224 224 225 225 226 227 227 228 228 228 229 231 231 227 218 205 204 206 208 211 212 214 215 217 219 220 222
274 272 269 265 258 255 254 253 251 248 245 250 252 254 256 259 258 254 247 246 245 245 248 253 256 256 253 247 233 222 219 224 227 229 228 225 222 219 216 213 211 209 208 208 208 210 211 213 215 216 219 221 223 225 226 227 228 227 227 227 226 226 225 226 226 226 226 226 226 227 228 228 223 214 204 204 206 208 210 212 213 215 217 219 221 223
275 274 275 275 271 267 263 262 260 256 252 249 249 248 247 248 252 257 261 266 269 270 270 269 268 265 259 251 237 227 222 224 227 229 229 227 224 221 218 217 215 214 213 213 213 214 215 217 218 219 221 222 223 224 225 226 227 227 227 227 226 225 224 224 224 224 224 224 224 225 226 224 218 209 202 203 205 208 210 211 213 215 218 220 223 224
275 274 276 274 272 272 273 271 270 268 265 256 248 242 240 238 239 245 250 256 261 266 269 270 270 268 265 259 245 233 225 224 226 227 229 227 225 222 220 219 218 218 217 217 217 217 218 220 221 222 223 224 224 225 225 225 226 226 226 226 225 224 223 222 222 222 223 223 223 223 224 220 214 206 200 202 204 207 210 211 214 216 219 221 224 226
278 276 278 275 274 273 273 271 271 270 270 265 256 247 240 236 235 238 240 242 244 247 250 254 257 260 261 259 251 240 228 223 224 226 228 228 226 224 222 221 221 220 220 220 220 220 220 221 222 223 224 225 226 226 226 226 225 225 225 225 224 223 222 221 221 222 222 223 223 223 222 218 211 204 200 201 204 207 210 212 215 218 220 223 225 227
282 281 280 280 279 277 273 269 266 266 266 265 263 258 251 244 236 232 232 234 236 238 241 243 244 245 248 250 249 244 233 223 221 222 226 227 227 226 224 223 223 223 223 222 222 222 222 223 224 224 225 226 227 228 228 228 227 226 226 225 224 223 221 221 221 221 222 223 223 223 222 217 211 205 201 202 204 206 209 213 216 219 222 224 226 228
282 283 281 280 281 281 278 272 266 262 261 261 260 259 258 254 248 236 223 224 226 229 234 238 239 239 238 239 240 240 235 225 219 218 219 221 222 223 223 223 224 224 224 224 224 224 224 224 225 225 226 227 228 229 229 229 229 228 228 227 225 224 222 221 221 222 222 223 223 223 221 217 212 207 203 203 204 206 208 212 216 220 223 225 226 227
278 279 280 278 277 276 277 275 272 269 266 264 261 258 257 258 258 254 245 236 228 222 225 233 240 244 243 239 236 234 231 225 221 218 217 215 215 216 217 218 220 222 223 224 225 226 226 226 226 226 227 228 228 229 229 229 230 230 230 230 228 227 224 223 222 222 223 223 223 222 221 217 213 209 205 205 205 205 207 210 214 219 223 225 226 226
274 274 276 275 274 272 271 273 275 275 274 275 272 266 259 258 259 261 260 256 251 244 239 238 242 247 250 246 241 236 231 227 223 220 218 215 213 211 211 211 214 217 220 222 224 225 226 226 226 227 227 228 228 229 229 229 229 230 230 231 230 229 227 225 224 223 223 223 223 222 220 217 213 210 207 206 205 205 206 208 211 216 222 226 227 227
274 274 274 274 273 271 269 270 271 272 271 272 270 264 255 249 247 251 255 258 259 259 258 255 250 246 243 244 243 242 237 230 224 218 217 216 213 211 209 210 213 215 218 221 223 224 225 226 226 226 226 227 227 228 228 229 229 229 230 230 230 230 229 227 226 224 224 224 223 222 219 216 213 210 207 206 206 205 205 206 208 213 219 225 229 230
273 274 275 273 273 272 271 272 271 268 261 256 256 257 256 250 245 245 249 253 254 256 259 260 256 247 237 232 232 235 237 231 221 211 212 215 215 213 214 216 217 218 219 221 223 224 224 224 225 225 225 226 226 227 227 228 228 229 229 229 229 229 229 228 226 225 224 224 223 221 219 216 213 210 208 206 205 205 204 205 207 210 215 222 228 231
276 277 276 275 274 273 274 274 273 270 265 260 259 259 261 259 253 250 250 252 252 251 253 256 255 250 238 223 218 219 223 220 212 208 215 219 216 214 216 220 221 220 218 221 223 223 220 220 221 224 224 224 225 226 226 227 228 228 228 228 228 228 228 227 226 225 224 223 222 220 218 215 213 210 208 206 204 203 203 204 206 208 213 219 226 231
276 277 275 274 274 275 276 276 275 274 273 272 273 274 274 269 261 255 253 253 252 249 247 250 251 249 241 221 208 203 207 209 211 217 225 226 223 221 222 227 227 224 219 221 223 222 216 214 215 218 219 220 221 222 222 224 226 227 227 227 227 227 227 226 225 224 223 222 221 220 218 215 213 210 208 206 204 202 201 202 204 207 211 216 222 227
274 274 272 273 274 274 275 278 278 279 280 283 284 285 284 279 273 266 261 259 256 252 247 248 249 248 243 223 202 190 193 203 211 220 228 232 228 223 224 231 233 231 225 224 224 222 216 213 212 213 214 215 216 216 216 220 223 224 225 226 226 226 225 225 224 223 222 221 220 218 217 215 213 210 208 205 203 201 199 200 202 205 209 213 218 223
273 271 270 272 272 272 274 277 279 281 284 286 286 285 284 284 283 282 277 273 268 262 255 251 249 248 248 234 204 182 179 195 209 219 228 234 230 219 214 224 231 234 231 228 227 224 219 215 214 213 214 212 211 212 213 216 219 221 222 223 224 224 224 224 223 222 221 220 219 217 215 214 212 210 207 204 201 198 197 197 198 201 205 210 215 220
271 269 268 268 267 268 270 272 274 277 282 282 283 284 284 283 284 284 282 281 279 276 273 268 261 256 256 250 224 167 166 188 205 218 227 235 230 216 206 213 223 230 233 232 231 228 225 224 222 220 221 212 210 209 210 213 215 218 219 221 222 222 223 223 222 222 221 219 217 216 214 212 210 208 206 202 199 195 193 192 193 196 200 206 211 215
271 270 269 267 266 266 265 265 268 272 276 277 280 283 284 284 287 289 290 290 289 288 287 281 274 268 265 258 242 155 164 187 201 215 227 235 231 216 197 205 216 225 232 234 233 231 231 233 232 230 229 221 214 210 208 210 213 215 217 218 219 220 221 221 222 221 220 218 216 214 212 210 208 206 204 200 195 192 188 186 186 187 190 196 202 208
273 271 269 271 272 271 266 263 263 267 271 277 284 290 291 296 302 305 303 302 302 302 303 289 281 276 275 270 260 213 167 189 203 215 226 235 233 219 189 198 209 219 229 233 234 233 234 238 239 238 235 231 224 216 210 209 211 213 215 217 218 218 219 220 221 220 219 218 215 212 209 208 206 204 201 197 192 187 184 181 179 178 177 179 183 189
271 270 268 272 275 275 270 268 269 272 276 284 290 293 293 298 300 297 294 298 301 302 304 297 293 295 309 305 306 317 356 275 242 237 237 240 238 225 190 192 201 212 222 228 229 229 232 236 239 241 240 239 234 228 220 214 213 213 214 216 217 218 219 219 220 219 219 217 214 211 208 206 204 201 198 194 189 185 180 176 173 170 167 164 162 162
267 268 270 272 273 274 274 276 278 280 283 287 288 286 286 289 287 285 285 289 291 291 292 293 297 304 316 311 312 318 334 314 285 270 266 255 248 236 193 184 194 208 217 221 222 220 222 229 234 237 238 239 238 236 232 225 220 217 217 217 217 218 218 219 219 219 218 216 213 209 206 204 202 199 196 192 187 183 178 174 170 166 162 157 152 148
264 265 267 268 269 271 275 279 282 284 287 286 284 282 283 286 286 286 290 290 288 286 285 286 288 290 290 287 288 289 287 273 270 272 272 262 255 244 190 179 190 205 215 215 215 215 216 222 226 231 235 237 238 239 238 236 232 227 223 221 219 218 218 219 219 218 217 215 212 208 205 203 201 198 194 190 186 181 177 173 169 165 161 156 152 148
264 264 264 263 264 267 273 277 279 281 283 283 283 283 286 287 286 286 287 286 285 285 285 285 284 282 279 278 278 276 261 237 235 250 262 263 261 254 215 187 195 207 215 213 213 214 215 218 220 223 228 235 238 241 242 242 239 236 231 227 223 221 219 218 218 218 216 214 210 207 204 202 199 196 193 188 184 180 176 172 168 165 161 158 154 151
266 265 265 264 263 264 266 268 270 272 275 277 280 283 286 288 288 287 286 284 283 282 282 282 280 277 277 280 279 273 255 213 209 226 248 260 265 261 235 198 202 215 217 214 213 213 215 216 215 215 220 232 238 241 244 244 243 241 237 233 228 224 221 219 218 217 216 212 209 205 202 200 198 194 191 187 183 179 175 171 167 164 161 158 155 152
262 262 263 264 264 263 263 264 264 265 266 268 271 275 280 284 285 284 282 278 277 276 275 272 270 269 272 275 273 269 256 213 208 219 237 253 265 266 245 212 218 231 230 223 214 207 208 213 212 212 214 227 235 239 242 244 243 242 240 236 232 227 223 220 218 216 215 211 207 204 201 198 195 192 188 184 181 177 173 169 165 162 159 156 154 152
265 265 265 265 264 263 262 261 261 261 261 261 261 263 267 272 273 272 267 267 268 270 270 266 266 267 269 267 267 266 261 233 217 216 225 247 262 264 254 234 236 244 249 242 222 195 190 209 218 222 223 225 230 235 239 240 241 242 241 239 235 230 226 222 219 216 214 210 206 203 199 196 193 189 186 182 178 174 170 166 162 159 156 154 152 152
277 275 274 273 271 269 266 263 261 259 258 257 258 258 259 260 260 259 258 259 262 264 263 262 263 265 265 263 263 265 264 250 228 211 203 234 253 257 253 244 237 241 253 256 231 158 161 209 229 238 240 236 234 235 237 237 238 239 240 239 237 233 229 224 220 216 212 209 205 201 197 194 190 187 183 180 176 172 168 163 160 156 153 152 151 151
287 285 285 283 280 278 275 271 267 263 260 258 257 256 255 253 252 253 254 253 253 254 255 255 256 258 259 260 261 262 260 254 234 202 182 221 245 252 247 243 234 231 237 256 249 196 185 212 225 235 241 240 238 237 236 233 234 236 238 239 238 236 232 227 221 216 211 207 203 199 195 191 188 184 181 177 173 170 166 161 158 156 153 152 151 150
286 282 279 278 277 277 276 274 271 267 264 262 259 257 255 252 250 249 251 245 243 244 247 249 249 249 251 255 255 253 250 250 237 194 179 225 244 251 241 239 228 217 201 230 247 244 229 214 212 218 226 229 230 230 229 227 228 231 235 238 239 238 234 228 222 215 209 204 200 196 193 188 185 181 178 174 171 168 164 161 159 157 154 153 151 151
289 286 280 277 274 271 268 266 265 265 264 262 260 258 255 252 249 247 246 241 239 240 244 247 248 248 248 249 247 242 234 243 282 77 204 247 256 257 239 241 232 214 186 200 225 245 249 222 204 201 209 215 220 223 222 222 222 225 228 234 238 238 235 227 220 214 207 201 197 193 189 185 181 178 175 172 169 166 164 162 160 157 154 153 152 153
286 286 285 285 284 280 275 272 269 266 262 259 256 253 250 246 244 243 244 243 244 245 249 253 256 257 256 254 252 249 241 219 89 98 218 262 273 273 252 250 245 231 204 207 217 232 253 241 200 174 190 201 212 220 222 222 222 224 225 231 238 238 232 224 218 212 205 199 194 190 186 182 179 175 172 170 168 166 164 163 161 159 156 155 155 155
277 277 278 279 279 277 275 274 272 269 266 262 258 254 250 246 243 240 240 241 244 247 253 260 265 270 270 268 267 267 270 278 271 244 230 256 276 283 276 267 262 253 234 225 224 229 241 242 217 146 167 192 209 222 229 226 223 224 227 233 240 241 233 224 216 210 205 197 192 188 184 180 176 174 171 169 167 166 165 164 163 161 158 157 155 154
270 269 269 269 269 268 268 266 265 263 261 259 257 255 252 250 247 245 242 241 241 242 245 250 257 265 273 278 280 282 283 284 288 289 281 263 265 278 286 279 276 270 258 242 233 229 231 233 219 180 165 184 203 218 226 222 218 218 229 242 249 251 243 224 213 206 200 194 189 186 183 179 176 173 170 169 168 168 167 166 165 164 162 160 156 153
268 268 268 268 268 267 266 264 261 259 257 254 252 250 249 248 248 247 247 248 247 248 248 249 251 257 264 272 279 282 282 287 295 299 295 280 276 282 286 280 280 281 275 258 243 230 226 228 220 207 186 182 194 204 209 203 198 201 229 258 266 267 261 234 211 197 189 185 182 180 179 177 175 173 170 170 169 169 168 167 166 165 164 162 159 155
268 268 270 270 270 270 270 271 271 271 272 270 267 263 260 257 257 258 259 261 262 263 264 263 262 261 262 266 270 275 280 288 297 299 295 289 286 287 285 278 278 281 280 272 262 249 234 226 220 216 211 204 197 190 181 170 167 178 221 255 267 271 272 253 221 193 180 177 175 173 170 171 171 171 170 169 169 169 168 168 166 165 163 161 159 156
270 273 274 275 275 277 278 277 278 280 282 285 285 283 277 271 267 267 270 275 279 282 282 282 280 278 276 273 271 273 278 285 288 289 288 290 289 285 279 279 278 276 272 275 274 272 263 239 223 216 217 217 209 189 160 151 156 180 211 230 245 258 271 263 233 198 180 174 170 166 163 163 164 165 164 166 167 167 167 166 165 163 160 158 155 153
279 281 280 278 277 279 280 278 274 270 270 274 277 277 274 268 262 257 260 270 280 288 292 292 291 289 286 283 279 274 274 273 273 274 276 280 281 279 275 279 280 278 273 274 275 275 275 263 240 220 214 221 218 203 165 153 161 183 202 211 225 245 266 263 239 206 183 172 164 160 157 156 155 155 157 161 162 164 164 164 162 159 156 153 151 149
289 286 283 280 277 275 274 273 270 263 253 254 260 267 273 277 279 280 277 273 271 270 269 271 273 274 274 272 270 267 265 261 260 261 263 264 265 266 268 273 276 278 278 277 275 273 273 270 262 248 229 225 220 209 179 157 156 165 171 187 217 241 256 259 240 212 187 171 163 159 155 152 150 150 152 155 157 158 160 159 158 156 153 148 145 145
297 294 292 289 285 281 278 276 274 270 263 258 256 259 266 275 283 286 282 272 265 260 254 251 253 255 256 255 256 256 254 252 250 250 252 251 249 250 253 259 265 271 276 277 276 273 270 269 268 266 260 247 233 217 193 166 155 151 146 164 208 229 230 239 232 215 189 173 166 163 159 154 152 153 155 157 160 162 162 160 158 156 155 151 147 144
298 297 296 294 292 288 284 282 281 281 282 283 281 278 275 275 274 273 271 268 265 263 261 257 257 257 256 254 252 250 248 246 245 244 244 242 240 240 242 245 251 257 264 271 273 274 270 267 265 262 258 255 254 246 224 183 164 159 162 179 197 205 197 211 214 208 189 178 171 166 162 158 157 158 160 161 162 163 161 158 157 156 157 157 155 152
296 296 296 298 298 297 296 295 294 296 299 302 305 308 310 307 302 294 285 279 273 270 267 265 263 261 258 255 251 248 245 242 239 237 238 236 234 233 234 236 239 244 250 258 263 266 268 266 264 259 253 252 252 252 245 200 173 169 182 185 180 171 178 210 208 195 185 183 176 169 164 162 162 162 162 162 161 159 157 156 156 157 159 160 160 159
296 297 298 299 300 301 302 303 303 303 304 306 309 311 311 309 305 299 294 289 285 282 280 276 273 272 270 267 263 258 252 246 241 237 235 232 229 227 228 229 231 233 236 242 249 255 258 261 260 258 254 251 249 250 256 232 195 179 192 181 170 165 194 208 199 186 187 185 178 172 169 166 163 161 159 156 154 152 153 155 157 160 161 161 161 161
297 297 297 295 296 298 299 300 300 302 304 306 304 300 295 290 287 285 284 282 281 281 282 282 282 281 278 272 270 267 265 260 253 248 245 238 230 223 222 223 223 223 223 229 237 243 248 253 254 254 251 249 247 248 254 249 233 209 195 185 184 187 197 190 181 180 188 183 178 174 172 165 159 153 150 149 150 152 154 155 158 160 161 160 159 157
288 290 289 287 286 284 283 284 287 292 296 296 293 288 283 279 277 277 277 276 274 272 271 271 272 272 268 263 263 265 268 265 260 256 253 244 233 224 217 217 217 218 220 225 230 237 244 249 253 256 255 248 243 242 242 244 240 227 203 193 194 199 203 187 179 181 186 181 177 173 169 160 154 149 149 151 154 157 159 159 159 159 159 159 160 159
283 284 284 283 282 280 279 282 286 290 292 290 287 286 284 283 281 280 278 276 275 273 271 268 267 267 269 270 270 268 268 268 265 260 254 242 229 219 214 212 213 215 219 225 230 234 240 246 252 256 257 251 246 242 235 234 232 225 206 193 193 197 198 189 185 185 184 180 176 172 166 160 157 156 158 158 159 160 163 163 163 162 160 161 162 163
288 287 287 288 290 290 292 294 296 296 295 293 292 291 290 289 288 285 281 279 278 278 278 276 273 270 269 268 267 266 267 267 267 265 261 249 231 217 210 210 212 215 221 226 230 234 238 241 244 247 249 249 247 244 237 231 228 224 212 194 189 189 192 191 189 186 184 180 176 170 164 164 165 166 163 159 159 160 163 165 164 163 162 162 163 164
291 292 294 296 298 299 299 300 299 295 292 289 287 285 284 281 279 278 278 276 274 274 275 273 270 268 266 264 262 260 260 260 260 259 259 253 240 223 209 209 211 216 222 227 232 236 240 241 242 242 241 241 242 242 238 234 232 228 219 197 188 188 191 189 186 184 183 181 175 169 167 170 172 170 163 158 159 162 164 164 165 164 164 163 163 164
292 296 300 302 302 300 298 296 293 290 287 285 284 282 279 276 274 273 272 270 266 263 260 260 261 262 262 260 257 254 253 253 253 252 251 250 244 232 213 208 207 210 215 223 229 235 241 245 245 243 242 238 239 241 242 238 235 230 221 203 192 188 188 185 182 181 182 178 173 172 175 178 176 170 162 161 162 163 162 163 163 164 164 165 165 165
292 297 303 304 303 300 296 293 291 289 287 287 287 286 284 282 279 276 274 270 266 261 256 256 258 260 261 259 257 254 251 250 249 248 246 245 242 236 231 223 215 207 203 209 215 222 231 242 243 239 231 226 225 229 239 241 238 231 223 211 198 187 183 181 179 178 179 174 172 173 179 181 178 171 165 164 163 161 160 162 163 164 163 164 164 164
301 304 306 305 303 299 296 294 292 290 288 288 288 288 288 287 285 282 278 273 268 263 260 257 257 257 258 259 260 259 258 257 256 255 253 250 246 242 243 243 232 219 208 204 205 208 216 232 239 236 226 215 208 207 218 229 232 229 223 212 198 186 182 178 176 175 176 173 172 173 177 179 178 174 172 167 162 160 161 163 164 164 162 162 162 161